User: anonymous   Login
Location: Caltech
(34.1382°N, 118.1253°W)
Time: 20:37:26
(UTC-07:00)
Language:

ADEOS II - Orbit

View from above orbital plane
View from above orbital plane
View from above satellite
View from above satellite

Ground track
Ground track

The orbit data is extracted from the following two-line orbital elements,

1 27597U 02056A   15182.07520279  .00000149  00000-0  78031-4 0  9999
2 27597 098.2872 174.8386 0000470 057.5634 345.0117 14.27102186653126
Epoch (UTC): 01 July 2015 01:48:17
Eccentricity: 0.0000470
inclination: 98.2872°
perigee height: 801 km
apogee height: 802 km
right ascension of ascending node: 174.8386°
argument of perigee: 57.5634°
revolutions per day: 14.27102186
mean anomaly at epoch: 345.0117°
orbit number at epoch: 65312

The dashed part of the orbit path shows where the satellite is in the earth's shadow,  

DLR